Location: Street
(51.1247°N, 2.7429°W)
Time: 06:10:35
(UTC+00:00)

SR - Pass Details

Date: 02 December 2020
Orbit: 575 x 880 km, 66.7° (Epoch: 25 January)

Event Time Altitude Azimuth Distance (km) Brightness Sun altitude
Rises 17:04:09 0° 181° (S) 2,809 ? -8.7°
Reaches altitude 10° 17:06:35 10° 169° (S) 1,940 ? -9.0°
Maximum altitude 17:10:12 26° 112° (ESE) 1,233 ? -9.5°
Enters shadow 17:13:22 13° 62° (ENE) 1,849 ? -10.0°
Drops below altitude 10° 17:14:03 10° 56° (ENE) 2,074 - -10.1°
Sets 17:16:44 0° 45° (NE) 3,046 - -10.5°
